This demonstration page uses our WeatherBlox Daily Observations layout. Learn more.

Hourly Observations for February 28, 2018

Temp ( °F °C ) Dew Point ( °F °C ) Humidity (%) Winds ( mph kmh ) Pressure ( in mb ) Visibility ( mi km ) Precip ( " mm )
12:15 am 00:15 Clear 26 -3.4 25 -3.7 98 98 N 8 13 29.94 1014 10 16.0934 0 0
12:35 am 00:35 Clear 28 -2.4 27 -2.9 96 96 N 8 13 29.94 1014 10 16.0934 0 0
12:55 am 00:55 Clear 27 -3 26 -3.4 97 97 N 7 11 29.94 1014 10 16.0934 0 0
1:15 am 01:15 Clear 25 -3.9 24 -4.4 96 96 NE 3 6 29.94 1014 10 16.0934 0 0
1:35 am 01:35 Clear 25 -4 24 -4.2 99 99 NE 7 11 29.94 1014 10 16.0934 0 0
1:55 am 01:55 Clear 25 -3.7 25 -3.9 99 99 NNE 8 13 29.91 1013 10 16.0934 0 0
2:15 am 02:15 Clear 25 -3.7 25 -4 98 98 N 7 11 29.91 1013 10 16.0934 0 0
2:35 am 02:35 Clear 24 -4.4 24 -4.6 99 99 NNE 6 9 29.94 1014 10 16.0934 0 0
2:55 am 02:55 Clear 23 -5 23 -5.1 99 99 N 8 13 29.91 1013 10 16.0934 0 0
3:15 am 03:15 Clear 22 -5.3 22 -5.4 99 99 N 5 7 29.91 1013 10 16.0934 0 0
3:35 am 03:35 Clear 24 -4.5 24 -4.6 99 99 N 7 11 29.91 1013 10 16.0934 0 0
3:55 am 03:55 Clear 22 -5.3 22 -5.5 99 99 N 7 11 29.91 1013 10 16.0934 0 0
4:15 am 04:15 Clear 22 -5.3 22 -5.5 99 99 N 6 9 29.91 1013 10 16.0934 0 0
4:35 am 04:35 Clear 23 -5.2 22 -5.5 98 98 N 7 11 29.91 1013 10 16.0934 0 0
4:55 am 04:55 Clear 23 -5 23 -5.1 99 99 N 9 15 29.91 1013 10 16.0934 0 0
5:15 am 05:15 Clear 23 -4.8 23 -5 99 99 N 8 13 29.91 1013 10 16.0934 0 0
5:35 am 05:35 Clear 22 -5.3 22 -5.6 98 98 N 8 13 29.91 1013 10 16.0934 0 0
5:55 am 05:55 Clear 23 -5 23 -5.2 99 99 N 6 9 29.94 1014 10 16.0934 0 0
6:15 am 06:15 Clear 22 -5.6 21 -6 97 97 N 6 9 29.94 1014 10 16.0934 0 0
6:35 am 06:35 Clear 20 -6.4 20 -6.6 99 99 N 8 13 29.94 1014 10 16.0934 0 0
6:55 am 06:55 Clear 23 -5.1 22 -5.3 99 99 N 7 11 29.91 1013 10 16.0934 0 0
7:15 am 07:15 Sunny 22 -5.5 22 -5.7 99 99 N 7 11 29.94 1014 10 16.0934 0 0
7:35 am 07:35 Sunny 22 -5.4 22 -5.6 99 99 N 8 13 29.94 1014 10 16.0934 0 0
7:55 am 07:55 Sunny 23 -4.8 23 -5.1 98 98 N 6 9 29.94 1014 10 16.0934 0 0
8:15 am 08:15 Sunny 25 -3.9 24 -4.4 96 96 N 7 11 29.94 1014 10 16.0934 0 0
8:35 am 08:35 Sunny 27 -2.8 26 -3.5 95 95 N 12 19 29.94 1014 10 16.0934 0 0
8:55 am 08:55 Sunny 29 -1.7 27 -2.6 94 94 N 12 19 29.91 1013 10 16.0934 0 0
9:15 am 09:15 Sunny 30 -0.9 28 -2.2 91 91 N 13 20 29.91 1013 10 16.0934 0 0
9:35 am 09:35 Sunny 32 0 29 -1.4 90 90 NNE 14 22 29.91 1013 10 16.0934 0 0
9:55 am 09:55 Sunny 33 0.8 30 -1.1 87 87 N 17 28 29.91 1013 10 16.0934 0 0
10:15 am 10:15 Sunny 35 1.8 30 -1 82 82 N 20 31 29.88 1012 10 16.0934 0 0
10:35 am 10:35 Sunny 37 2.6 30 -1 77 77 N 14 22 29.88 1012 10 16.0934 0 0
10:55 am 10:55 Sunny 38 3.1 30 -1.1 74 74 N 18 30 29.88 1012 10 16.0934 0 0
11:15 am 11:15 Sunny 39 3.8 30 -1 71 71 N 16 26 29.88 1012 10 16.0934 0 0
11:35 am 11:35 Sunny 40 4.7 30 -1.1 66 66 NNE 17 28 29.88 1012 10 16.0934 0 0
11:55 am 11:55 Sunny 42 5.5 30 -0.9 64 64 N 18 30 29.88 1012 10 16.0934 0 0
12:15 pm 12:15 Sunny 42 5.5 30 -1.1 63 63 N 20 31 29.85 1011 10 16.0934 0 0
12:35 pm 12:35 Sunny 43 6 30 -1 61 61 N 20 31 29.85 1011 10 16.0934 0 0
12:55 pm 12:55 Sunny 44 6.6 30 -0.9 59 59 N 20 31 29.85 1011 10 16.0934 0 0
1:15 pm 13:15 Sunny 45 7.1 30 -1 57 57 N 21 33 29.85 1011 10 16.0934 0 0
1:35 pm 13:35 Sunny 45 7.2 30 -1.1 56 56 N 20 31 29.85 1011 10 16.0934 0 0
1:55 pm 13:55 Sunny 45 7.3 29 -1.4 54 54 NNE 21 33 29.85 1011 10 16.0934 0 0
2:15 pm 14:15 Sunny 45 7.4 29 -1.5 54 54 N 20 31 29.8 1009 10 16.0934 0 0
2:35 pm 14:35 Sunny 45 7.2 29 -1.7 54 54 NNE 23 37 29.85 1011 10 16.0934 0 0
2:55 pm 14:55 Sunny 45 7.2 29 -1.8 53 53 N 23 37 29.85 1011 10 16.0934 0 0
3:15 pm 15:15 Sunny 45 7.4 28 -2.4 50 50 NNE 23 37 29.85 1011 10 16.0934 0 0
3:35 pm 15:35 Sunny 45 7.1 27 -2.6 50 50 N 20 31 29.85 1011 10 16.0934 0 0
3:55 pm 15:55 Sunny 45 7.1 28 -2.3 52 52 N 20 31 29.85 1011 10 16.0934 0 0
4:15 pm 16:15 Sunny 43 6.3 27 -3 52 52 NNE 23 37 29.85 1011 10 16.0934 0 0
4:35 pm 16:35 Sunny 44 6.4 25 -4.1 47 47 NNE 24 39 29.88 1012 10 16.0934 0 0
4:55 pm 16:55 Sunny 42 5.8 26 -3.5 52 52 N 17 28 29.88 1012 10 16.0934 0 0
5:15 pm 17:15 Sunny 43 6 26 -3.4 51 51 N 21 33 29.91 1013 10 16.0934 0 0
5:35 pm 17:35 Sunny 42 5.4 25 -4 51 51 N 21 33 29.91 1013 10 16.0934 0 0
6:15 pm 18:15 Sunny 38 3.3 25 -4 59 59 N 13 20 29.97 1015 10 16.0934 0 0
6:35 pm 18:35 Clear 37 3 25 -3.9 61 61 N 15 24 30 1016 10 16.0934 0 0
6:55 pm 18:55 Clear 37 2.7 25 -4.1 61 61 N 14 22 30 1016 10 16.0934 0 0
7:15 pm 19:15 Clear 36 2.2 24 -4.6 61 61 N 16 26 30.06 1018 10 16.0934 0 0
7:35 pm 19:35 Partly Cloudy 35 1.6 23 -4.8 63 63 N 15 24 30.06 1018 10 16.0934 0 0
7:55 pm 19:55 Partly Cloudy 34 1 23 -5.2 64 64 N 14 22 30.06 1018 10 16.0934 0 0
8:15 pm 20:15 Partly Cloudy 32 0.1 23 -5 69 69 N 13 20 30.09 1019 10 16.0934 0 0
8:35 pm 20:35 Clear 32 -0.2 23 -5 70 70 N 10 17 30.09 1019 10 16.0934 0 0
8:55 pm 20:55 Clear 31 -0.5 23 -5 72 72 N 10 17 30.12 1020 10 16.0934 0 0
9:15 pm 21:15 Clear 30 -0.9 22 -5.3 72 72 N 9 15 30.12 1020 10 16.0934 0 0
9:35 pm 21:35 Clear 29 -1.5 23 -5.2 76 76 N 9 15 30.15 1021 10 16.0934 0 0
9:55 pm 21:55 Clear 29 -1.5 23 -5 77 77 N 8 13 30.15 1021 10 16.0934 0 0
10:15 pm 22:15 Clear 29 -1.7 23 -5 78 78 N 9 15 30.15 1021 10 16.0934 0 0
10:35 pm 22:35 Clear 29 -1.7 23 -5.2 77 77 N 9 15 30.15 1021 10 16.0934 0 0
10:55 pm 22:55 Clear 29 -1.5 22 -5.5 74 74 N 9 15 30.18 1022 10 16.0934 0 0
11:15 pm 23:15 Clear 29 -1.8 21 -6 73 73 NNW 13 20 30.18 1022 10 16.0934 0 0
11:35 pm 23:35 Clear 28 -2.3 22 -5.8 77 77 NNW 9 15 30.18 1022 10 16.0934 0 0
11:55 pm 23:55 Clear 28 -2.3 21 -6 76 76 N 10 17 30.18 1022 10 16.0934 0 0

Powered by AerisWeather